This is the latest recevied weather packets stored in our database for station/object W0DXV. If no packets are shown the sender has not sent any weather packets the latest 10 day(s).
| Time | Temp. | Humidity | Pressure | Rain* | Wind** | Luminosity | Snow |
|---|---|---|---|---|---|---|---|
| 1777940339 | 19.44° C | 41% | 1009.8 hPa | 0 mm | - | 1 W/m² | - |
| 1777940035 | 20° C | 41% | 1010 hPa | 0 mm | - | 2 W/m² | - |
| 1777939733 | 20° C | 40% | 1010.1 hPa | 0 mm | - | 3 W/m² | - |
| 1777939430 | 20.56° C | 39% | 1009.9 hPa | 0 mm | - | 5 W/m² | - |
| 1777939127 | 20.56° C | 37% | 1009.5 hPa | 0 mm | - | 7 W/m² | - |
| 1777938824 | 20.56° C | 42% | 1009.8 hPa | 0 mm | - | 9 W/m² | - |
| 1777938521 | 21.11° C | 44% | 1009.5 hPa | 0 mm | - | 12 W/m² | - |
| 1777938218 | 21.11° C | 39% | 1009.4 hPa | 0 mm | - | 14 W/m² | - |
| 1777937915 | 21.67° C | 38% | 1009.4 hPa | 0 mm | - | 16 W/m² | - |
| 1777937610 | 21.67° C | 38% | 1009.2 hPa | 0 mm | - | 18 W/m² | - |
| 1777937308 | 22.22° C | 37% | 1009.6 hPa | 0 mm | - | 21 W/m² | - |
| 1777937005 | 22.22° C | 37% | 1009.3 hPa | 0 mm | - | 23 W/m² | - |
| 1777936701 | 22.78° C | 37% | 1009.4 hPa | 0 mm | - | 24 W/m² | - |
| 1777936398 | 22.78° C | 36% | 1009.3 hPa | 0 mm | - | 26 W/m² | - |
| 1777936094 | 22.78° C | 36% | 1009.2 hPa | 0 mm | - | 27 W/m² | - |
| 1777935792 | 23.33° C | 37% | 1009 hPa | 0 mm | - | 28 W/m² | - |
| 1777935491 | 23.33° C | 36% | 1009.2 hPa | 0 mm | - | 29 W/m² | - |
| 1777935186 | 23.33° C | 38% | 1009.2 hPa | 0 mm | - | 31 W/m² | - |
| 1777934884 | 23.33° C | 35% | 1009.3 hPa | 0 mm | - | 33 W/m² | - |
| 1777934581 | 23.33° C | 34% | 1009.2 hPa | 0 mm | - | 34 W/m² | - |
| 1777934277 | 23.33° C | 36% | 1009.2 hPa | 0 mm | - | 36 W/m² | - |
| 1777933973 | 23.33° C | 37% | 1009.2 hPa | 0 mm | - | 38 W/m² | - |
| 1777933670 | 23.33° C | 36% | 1009.1 hPa | 0 mm | - | 39 W/m² | - |
| 1777933367 | 23.89° C | 40% | 1009.3 hPa | 0 mm | - | 41 W/m² | - |
| 1777933064 | 23.89° C | 37% | 1009.2 hPa | 0 mm | - | 41 W/m² | - |
* Rain latest hour (hover to see other rain measurements)
** Current wind speed in m/s (hover to see current wind gust speed)